W0QQ Weather Reports


time (UTC)temp
C
wind
direction
speed
KPH
gust
KPH
rain 1hr
cm
rain 24hr
cm
rain mn
cm
humidity
%
barometer
mb
20260906180029 36 11 1.6 6.4 0.00 0.00 0.00 50 1013.0
20260906174521 36 11 0.0 14.5 0.00 0.00 0.00 51 1013.2
20260906173019 36 11 1.6 9.7 0.00 0.00 0.00 51 1013.4
20260906171515 36 128 0.0 6.4 0.00 0.00 0.00 54 1013.6
20260906170016 35 11 3.2 9.7 0.00 0.00 0.00 53 1014.0
20260906164512 35 121 0.0 6.4 0.00 0.00 0.00 54 1014.0
20260906163010 35 145 3.2 12.9 0.00 0.00 0.00 54 1014.1
20260906161508 34 97 0.0 9.7 0.00 0.00 0.00 59 1014.1
20260906160003 33 90 4.8 14.5 0.00 0.00 0.00 58 1013.9
20260906154600 33 11 4.8 12.9 0.00 0.00 0.00 61 1014.0
20260906153155 32 109 3.2 11.3 0.00 0.00 0.00 62 1013.9
20260906151551 31 11 4.8 11.3 0.00 0.00 0.00 64 1013.9
20260906150046 31 124 4.8 12.9 0.00 0.00 0.00 67 1014.0
20260906144542 30 11 3.2 6.4 0.00 0.00 0.00 70 1014.0
20260906143037 28 136 6.4 14.5 0.00 0.00 0.00 74 1014.1
20260906141533 27 95 1.6 8.0 0.00 0.00 0.00 81 1014.0
20260906140034 26 90 1.6 9.7 0.00 0.00 0.00 84 1014.0
20260906134526 25 43 1.6 4.8 0.00 0.00 0.00 86 1013.8
20260906133031 25 78 1.6 6.4 0.00 0.00 0.00 88 1013.7
20260906131522 24 11 1.6 6.4 0.00 0.00 0.00 90 1013.6
20260906130024 23 89 1.6 6.4 0.00 0.00 0.00 90 1013.3
20260906124521 23 11 1.6 4.8 0.00 0.00 0.00 90 1013.3
20260906123020 23 100 0.0 1.6 0.00 0.00 0.00 89 1013.1
20260906121530 23 99 0.0 1.6 0.00 0.00 0.00 88 1013.0
20260906120013 23 99 0.0 4.8 0.00 0.00 0.00 88 1012.8
20260906114520 23 11 0.0 1.6 0.00 0.00 0.00 87 1012.9
20260906113011 23 101 0.0 4.8 0.00 0.00 0.00 86 1012.8
20260906111509 23 103 0.0 6.4 0.00 0.00 0.00 85 1012.6
20260906110007 24 11 0.0 1.6 0.00 0.00 0.00 85 1012.6
20260906104506 24 114 0.0 0.0 0.00 0.00 0.00 85 1012.5
20260906103012 24 115 0.0 3.2 0.00 0.00 0.00 85 1012.4
20260906101503 24 11 0.0 4.8 0.00 0.00 0.00 86 1012.4
20260906100003 24 11 1.6 6.4 0.00 0.00 0.00 87 1012.2
20260906094606 24 11 1.6 4.8 0.00 0.00 0.00 88 1012.2
20260906093059 25 105 0.0 4.8 0.00 0.00 0.00 88 1012.3
20260906091556 25 108 0.0 3.2 0.00 0.00 0.00 87 1012.2
20260906090055 25 107 1.6 4.8 0.00 0.00 0.00 86 1012.2
20260906084556 25 107 0.0 4.8 0.00 0.00 0.00 86 1012.1
20260906083051 25 128 1.6 4.8 0.00 0.00 0.00 84 1012.0
20260906081548 25 11 0.0 0.0 0.00 0.00 0.00 83 1011.8
20260906080047 25 126 0.0 0.0 0.00 0.00 0.00 82 1011.8
20260906074545 25 126 0.0 1.6 0.00 0.00 0.00 81 1011.8
20260906073043 26 126 0.0 0.0 0.00 0.00 0.00 80 1011.8
20260906071541 26 11 0.0 1.6 0.00 0.00 0.00 79 1011.8
20260906070039 26 11 0.0 0.0 0.00 0.00 0.00 77 1011.8
20260906064537 26 126 0.0 1.6 0.00 0.00 0.00 76 1012.0
20260906063036 27 126 1.6 3.2 0.00 0.00 0.00 76 1012.0
20260906061532 27 126 0.0 3.2 0.00 0.00 0.00 75 1012.1
20260906060031 27 11 0.0 4.8 0.00 0.00 0.00 74 1012.0
20260906054528 27 126 1.6 3.2 0.00 0.00 0.00 73 1012.3
20260906053025 28 126 0.0 3.2 0.00 0.00 0.00 72 1012.3
20260906051523 28 126 0.0 3.2 0.00 0.00 0.00 72 1012.3
20260906050021 28 11 0.0 3.2 0.00 0.00 0.00 71 1012.2
20260906044520 28 11 1.6 4.8 0.00 0.00 0.00 71 1012.1
20260906043028 28 11 1.6 6.4 0.00 0.00 0.00 71 1012.3
20260906041519 28 11 1.6 4.8 0.00 0.00 0.00 70 1012.1
20260906040019 28 11 0.0 4.8 0.00 0.00 0.00 70 1012.1
20260906034532 28 125 1.6 6.4 0.00 0.00 0.00 69 1012.0
20260906033018 29 11 1.6 4.8 0.00 0.00 0.00 69 1011.9
20260906031526 29 128 1.6 4.8 0.00 0.00 0.00 69 1011.8
20260906030017 29 11 1.6 4.8 0.00 0.00 0.00 69 1011.7
20260906024516 29 109 1.6 4.8 0.00 0.00 0.00 69 1011.3
20260906023015 29 11 1.6 3.2 0.00 0.00 0.00 67 1011.2
20260906021515 30 97 0.0 4.8 0.00 0.00 0.00 66 1010.9
20260906020014 30 97 0.0 3.2 0.00 0.00 0.00 65 1010.6
20260906014515 31 97 1.6 4.8 0.00 0.00 0.00 63 1010.6
20260906013014 31 98 1.6 4.8 0.00 0.00 0.00 62 1010.4
20260906011513 32 93 1.6 8.0 0.00 0.00 0.00 60 1010.3
20260906010013 32 93 3.2 8.0 0.00 0.00 0.00 59 1010.3
20260906004512 32 72 1.6 6.4 0.00 0.00 0.00 57 1010.2
20260906003012 33 64 3.2 6.4 0.00 0.00 0.00 56 1010.2
20260906001516 33 122 1.6 4.8 0.00 0.00 0.00 53 1010.1
20260906000011 34 216 0.0 0.0 0.00 0.00 0.00 51 1010.0
20260905234511 35 216 0.0 1.6 0.00 0.00 0.00 49 1010.0
20260905233014 36 216 0.0 6.4 0.00 0.00 0.00 47 1010.0
20260905231514 36 191 1.6 6.4 0.00 0.00 0.00 43 1009.9
20260905230009 36 201 1.6 4.8 0.00 0.00 0.00 44 1009.9
20260905224509 36 198 0.0 8.0 0.00 0.00 0.00 42 1009.9
20260905223007 37 11 0.0 12.9 0.00 0.00 0.00 43 1009.9
20260905221505 37 11 3.2 11.3 0.00 0.00 0.00 40 1010.0
20260905220004 38 199 0.0 4.8 0.00 0.00 0.00 40 1010.3
20260905214510 38 248 1.6 6.4 0.00 0.00 0.00 40 1010.3
20260905213001 38 127 3.2 11.3 0.00 0.00 0.00 40 1010.5
20260905211609 38 11 3.2 9.7 0.00 0.00 0.00 39 1010.6
20260905210116 38 220 1.6 4.8 0.00 0.00 0.00 39 1010.9
20260905204600 38 215 0.0 3.2 0.00 0.00 0.00 42 1011.1
20260905203055 38 226 1.6 8.0 0.00 0.00 0.00 40 1011.2
20260905201554 38 11 4.8 14.5 0.00 0.00 0.00 39 1011.5
20260905200115 38 120 4.8 12.9 0.00 0.00 0.00 39 1011.6
20260905194553 39 11 3.2 16.1 0.00 0.00 0.00 40 1011.7
20260905193050 38 180 0.0 12.9 0.00 0.00 0.00 43 1011.9
20260905191550 38 250 1.6 8.0 0.00 0.00 0.00 45 1012.1
20260905190047 38 203 3.2 16.1 0.00 0.00 0.00 39 1012.2
20260905184551 38 11 1.6 14.5 0.00 0.00 0.00 42 1012.4
20260905183044 38 114 1.6 12.9 0.00 0.00 0.00 42 1012.6
20260905181546 38 205 6.4 14.5 0.00 0.00 0.00 42 1012.8